This is the latest recevied weather packets stored in our database for station/object KC8ZBC. If no packets are shown the sender has not sent any weather packets the latest 10 day(s).
| Time | Temp. | Humidity | Pressure | Rain* | Wind** | Luminosity | Snow |
|---|---|---|---|---|---|---|---|
| 1777291029 | 8.89° C | 85% | 994.8 hPa | 0 mm | - | 53 W/m² | - |
| 1777290725 | 8.89° C | 85% | 994.8 hPa | 0 mm | - | 37 W/m² | - |
| 1777290421 | 8.33° C | 86% | 994.7 hPa | 0 mm | - | 33 W/m² | - |
| 1777290116 | 8.33° C | 86% | 994.7 hPa | 0 mm | - | 31 W/m² | - |
| 1777289815 | 8.33° C | 86% | 994.6 hPa | 0 mm | - | 26 W/m² | - |
| 1777289510 | 7.78° C | 86% | 994.8 hPa | 0 mm | - | 23 W/m² | - |
| 1777289206 | 7.78° C | 86% | 994.9 hPa | 0 mm | - | 22 W/m² | - |
| 1777288903 | 7.78° C | 86% | 994.8 hPa | 0 mm | - | 21 W/m² | - |
| 1777288599 | 7.78° C | 86% | 994.9 hPa | 0 mm | - | 20 W/m² | - |
| 1777288296 | 7.78° C | 86% | 994.8 hPa | 0 mm | - | 17 W/m² | - |
| 1777287993 | 7.78° C | 87% | 994.8 hPa | 0 mm | - | 13 W/m² | - |
| 1777287691 | 7.22° C | 87% | 995 hPa | 0 mm | - | 11 W/m² | - |
| 1777287386 | 7.22° C | 87% | 995 hPa | 0 mm | - | 7 W/m² | - |
| 1777287082 | 7.22° C | 86% | 994.8 hPa | 0 mm | - | 6 W/m² | - |
| 1777286779 | 7.22° C | 87% | 994.6 hPa | 0 mm | - | 4 W/m² | - |
| 1777286477 | 7.22° C | 86% | 994.7 hPa | 0 mm | - | 1 W/m² | - |
| 1777286174 | 7.22° C | 86% | 994.6 hPa | 0 mm | - | 0 W/m² | - |
| 1777285872 | 7.22° C | 86% | 994.5 hPa | 0 mm | - | 0 W/m² | - |
| 1777285569 | 7.22° C | 86% | 994.7 hPa | 0 mm | - | 0 W/m² | - |
| 1777285266 | 7.22° C | 86% | 994.7 hPa | 0 mm | - | 0 W/m² | - |
| 1777284963 | 7.22° C | 85% | 994.8 hPa | 0 mm | - | 0 W/m² | - |
| 1777284659 | 7.22° C | 85% | 994.8 hPa | 0 mm | - | 0 W/m² | - |
| 1777284357 | 7.22° C | 85% | 994.9 hPa | 0 mm | - | 0 W/m² | - |
| 1777284054 | 7.22° C | 85% | 994.9 hPa | 0 mm | - | 0 W/m² | - |
| 1777283751 | 7.22° C | 85% | 994.7 hPa | 0 mm | - | 0 W/m² | - |
* Rain latest hour (hover to see other rain measurements)
** Current wind speed in m/s (hover to see current wind gust speed)